Regional Weather Roundup
Issued by NWS

Home | Current Version | Previous Version | Text Only | Print | Product List | Glossary On
Versions: 1 2 3 4 5 6 7 8 9 10 11 12 13 14 15 16 17 18 19 20 21 22 23 24 25 26 27 28 29 30 31 32 33 34 35 36 37 38 39 40 41 42 43 44 45 46 47 48 49 50
000
ASUS43 KDTX 272210
RWRMI
MICHIGAN HOURLY REGIONAL WEATHER ROUNDUP
NATIONAL WEATHER SERVICE DETROIT/PONTIAC MI
600 PM EDT THU APR 27 2017

NOTE: "FAIR" INDICATES FEW OR NO CLOUDS BELOW 12,000 FEET WITH NO
SIGNIFICANT WEATHER AND/OR OBSTRUCTION TO VISIBILITY.

MIZ047>049-052>055-059>063-066>070-074>076-081>083-272300-
SOUTHEAST LOWER MICHIGAN

CITY           SKY/WX    TMP DP  RH WIND       PRES   REMARKS
ADRIAN         CLOUDY    55  44  66 W18G29    29.69R
ALMA           CLOUDY    50  40  70 SW20G30   29.64R
ANN ARBOR      PTSUNNY   58  45  62 SW18G28   29.65R
BAD AXE        SUNNY     62  44  52 W18G35    29.55R
CARO           SUNNY     60  44  56 W17G26    29.57R
DETROIT CITY   SUNNY     65  46  50 W23G32    29.60R
DETROIT        MOSUNNY   64  45  49 SW21G35   29.64R
FLINT          CLOUDY    58  44  60 W20G29    29.61R
GROSSE ILE     MOSUNNY   63  46  53 W20G28    29.63R
HILLSDALE      CLOUDY    52  41  66 SW14G25   29.69R
HOWELL         CLOUDY    57  41  55 SW17G29   29.63R

CITY           SKY/WX    TMP DP  RH WIND       PRES   REMARKS
JACKSON        CLOUDY    53  42  66 SW22G32   29.67R
LAMBERTVILLE   PTSUNNY   58  45  62 W15G26    29.69R
LANSING        CLOUDY    52  40  63 W18G26    29.66R
LAPEER         PTSUNNY   63  46  53 W15G22    29.58R
MASON          CLOUDY    54  43  67 SW15G24   29.65R
MONROE         PTSUNNY   60  46  59 W22G29    29.65R
MT. CLEMENS    MOSUNNY   67  48  49 SW18G35   29.57R
PONTIAC        PTSUNNY   62  44  51 W18G26    29.60R
PORT HOPE        N/A     63  44  50 W15G25    29.51R
PORT HURON     MOSUNNY   70  45  40 SW15G24   29.55R
TRI CITIES     CLOUDY    54  42  64 SW22G31   29.61R
MIDLAND        CLOUDY    53  39  60 SW12G24   29.60R
TROY           MOSUNNY   65  41  40 SW21G29   29.62R
SAGINAW HB     MOSUNNY   55  39  54 W24G33    29.59R
$$
MIZ043>046-050>051-056>058-064>065-071>073-077>080-272300-
SOUTHWEST LOWER MICHIGAN

CITY           SKY/WX    TMP DP  RH WIND       PRES   REMARKS
BATTLE CREEK   CLOUDY    48  40  73 W17G24    29.70R
BENTON HARBOR  CLOUDY    47  39  74 SW14G24   29.72R
BIG RAPIDS     CLOUDY    44  34  69 W13G22    29.62R
COLDWATER      CLOUDY    51  40  67 SW21      29.71R
FREMONT        CLOUDY    43  35  71 SW16G22   29.66R
HOLLAND        CLOUDY    46  38  73 SW18G26   29.70R
GRAND RAPIDS   CLOUDY    47  39  74 W23G31    29.68R
IONIA          CLOUDY    49  38  67 SW24G30   29.67R
KALAMAZOO      CLOUDY    48  37  65 W13G22    29.72R
LUDINGTON      CLOUDY    41  36  80 SW18G26   29.64R
MARSHALL       CLOUDY    51  40  67 SW17G24   29.69R
MOUNT PLEASANT CLOUDY    48  38  68 SW21      29.62R
MUSKEGON       CLOUDY    44  38  79 SW14      29.69R
SOUTH HAVEN    CLOUDY    46  39  77 SW15G31   29.71R
$$
MIZ016>042-272300-
NORTHERN LOWER MICHIGAN

CITY           SKY/WX    TMP DP  RH WIND       PRES   REMARKS
ALPENA         MOSUNNY   63  41  44 SW18G32   29.45R
BEAVER ISLAND  CLOUDY    40  39  95 SW16G26   29.50R WCI  32
BELLAIRE       CLOUDY    46  36  69 SW8G26    29.54R
CADILLAC       CLOUDY    43  35  72 SW20G29   29.57R
CHARLEVOIX     CLOUDY    45  36  71 SW22G28   29.55R
FRANKFORT      LGT RAIN  39  35  85 SW13G23   29.59R WCI  31
GAYLORD        CLOUDY    50  37  61 SW21G29   29.49R
GRAYLING       CLOUDY    48  38  66 SW15G23   29.53R
HARBOR SPRINGS CLOUDY    44  38  78 SW17G26   29.50R
HOUGHTON LAKE  CLOUDY    48  39  71 SW17G33   29.56R
MANISTEE       CLOUDY    41  34  76 SW13G25   29.61R
OSCODA         SUNNY     63  40  43 SW26G33   29.50R
PELLSTON       CLOUDY    46  38  73 W14G29    29.50R
ROGERS CITY    SUNNY     63  41  45 W22G30    29.43R
TRAVERSE CITY  CLOUDY    44  35  70 W12G26    29.54R
$$
MIZ007>008-015-272300-
EASTERN UPPER MICHIGAN

CITY           SKY/WX    TMP DP  RH WIND       PRES   REMARKS
KINROSS        SUNNY     47  37  68 SW22G29   29.46R
MACKINAC ISLAN CLOUDY    41  38  87 SW20G33   29.48R
NEWBERRY       CLOUDY    37  36  96 W14G20    29.46R FOG     WCI  28
S. S. MARIE    SUNNY     52  38  58 SW30G44   29.43R
MUNISING         N/A     33  32  96 N7        29.47R WCI  27
$$
MIZ004>006-011>014-085-272300-
CENTRAL UPPER MICHIGAN

CITY           SKY/WX    TMP DP  RH WIND       PRES   REMARKS
MANISTIQUE     CLOUDY    38  37  97 SW6       29.48R FOG     WCI  33
ESCANABA       LGT SNOW  34  32  93 W14       29.52R FOG     WCI  24
MENOMINEE      LGT RAIN  36  34  92 W9G16     29.56R FOG     WCI  29
SAWYER-GWINN   LGT SNOW  30  27  86 W10       29.46R WCI  21
$$
MIZ001>003-009>011-084-272300-
WESTERN UPPER MICHIGAN

CITY           SKY/WX    TMP DP  RH WIND       PRES   REMARKS
IRON MOUNTAIN  LGT SNOW  33  28  81 W8        29.48R WCI  26
HOUGHTON       LGT SNOW  27  22  81 W21       29.43R VSB 1   WCI  13
COPPER HARBOR    N/A     28  25  88 NW9       29.41R WCI  19
IRONWOOD       CLOUDY    27  24  89 W10       29.52R WCI  17
$$

ABBREVIATIONS USED IN REMARKS
   TC - TEMPERATURE IN CELSIUS
  WCI - WIND CHILL INDEX
   HX - HEAT INDEX
  VSB - VISIBILITY





USA.gov is the U.S. government's official web portal to all federal, state and local government web resources and services.